Lid_Strength_Index
2 0 2 5 10 11 14 10 7 8 8 6 5 7 8 7 8 12 2 1 0 0 -0 -1 -2 -2 -2 -2 -1 -1 -1 -1 -2 -2 -2 -2 -2 -2 -2 -2 -2 -2 -2 -1 -1 -2 -1 -1 -1
4 4 5 6 12 16 13 8 9 7 6 5 5 6 7 8 4 4 3 1 -0 0 0 0 -2 -2 -1 -1 -1 -1 -1 -2 -2 -2 -2 -2 -2 -2 -2 -2 -2 -2 -1 -1 -1 -1 -1 -1 -1
2 3 9 9 13 15 13 8 7 6 5 5 6 5 6 7 4 3 1 0 0 0 0 -0 -1 -2 -1 -1 -1 -1 -1 -2 -2 -2 -2 -2 -2 -2 -2 -2 -2 -1 -1 -1 -1 -1 -1 -1 -1
5 8 9 11 13 10 8 7 6 7 5 5 5 8 4 2 3 2 1 0 0 0 0 -1 -1 -2 -1 -1 -1 -1 -2 -2 -2 -2 -2 -2 -2 -2 -2 -2 -1 -1 -1 -1 -1 -1 -1 -1 -1
7 9 12 11 10 8 7 6 6 7 7 6 6 8 6 3 1 1 1 0 1 0 0 -0 -1 -1 -1 -2 -2 -2 -2 -2 -2 -2 -2 -2 -2 -2 -2 -1 -2 -1 -1 -1 -1 -1 -1 -2 -2
10 10 13 12 9 7 7 5 6 6 6 6 7 7 6 2 2 1 1 1 1 0 0 -0 -1 -1 -2 -1 -1 -1 -2 -2 -2 -2 -2 -2 -2 -2 -2 -1 -1 -1 -1 -1 -1 -1 -1 -3 -3
11 12 13 10 10 8 7 5 6 6 7 7 5 8 5 3 2 1 1 1 1 0 0 -0 -0 -1 -1 -1 -1 -1 -2 -2 -2 -2 -2 -2 -3 -3 -2 -1 -1 -1 -1 -1 -1 -1 -2 -3 -3
10 10 12 9 10 10 6 5 5 5 7 3 4 8 8 3 1 1 1 2 1 0 0 0 0 0 0 0 -1 -1 -2 -2 -2 -2 -2 -3 -2 -2 -2 -2 -2 -1 -1 -1 -1 -1 -2 -3 -3
9 13 12 11 10 9 6 6 5 4 5 5 4 4 3 2 2 2 2 1 1 1 1 1 0 0 1 0 -0 -1 -2 -2 -2 -2 -2 -2 1 1 -1 -2 -1 -1 -1 -1 -1 -2 -3 -3 -3
10 12 11 8 7 9 6 6 6 6 6 6 5 3 2 2 2 3 3 3 2 2 1 1 0 0 1 -0 0 1 -0 0 -0 -0 1 1 1 0 1 -2 -2 -1 -1 -1 -2 -2 -3 -2 -0
10 10 8 7 6 5 6 6 5 6 8 6 6 5 3 3 4 3 3 3 3 2 1 1 1 0 2 1 0 0 0 1 2 2 2 2 1 2 2 -0 -0 -0 -1 -0 -1 -0 -0 0 -0
11 8 7 8 7 7 6 5 6 6 6 4 4 4 3 4 4 3 4 3 3 3 2 1 1 1 2 2 2 0 0 1 1 -0 1 1 0 0 1 2 0 -0 0 0 0 2 1 1 1
9 8 7 6 7 7 5 6 6 6 4 3 3 3 4 4 4 3 3 3 3 2 2 1 0 1 2 3 2 1 1 0 0 0 0 0 0 0 1 1 1 0 -0 1 1 1 1 1 1
7 8 7 7 8 8 8 6 6 5 4 4 4 4 4 3 4 4 3 3 3 2 1 1 1 0 0 0 1 1 1 1 0 1 0 0 0 1 1 1 1 1 0 1 1 2 2 1 1
7 9 8 7 8 7 7 8 7 5 4 5 5 4 4 3 3 3 3 3 2 2 1 1 1 0 1 1 1 1 1 0 1 0 -0 0 0 1 1 1 1 0 0 1 1 2 1 1 1
8 8 11 9 8 7 8 12 6 5 5 6 5 4 4 4 3 2 3 2 2 2 1 1 0 1 1 1 1 0 0 0 0 0 0 -0 -0 0 1 1 1 0 1 0 1 3 2 2 1
10 13 12 10 7 8 9 9 6 5 5 6 5 5 4 4 3 3 2 2 2 2 1 2 1 1 1 1 0 1 1 1 0 0 0 0 -0 -0 1 0 1 2 1 1 1 1 2 1 2
12 12 11 11 8 8 9 8 6 5 5 6 6 5 5 5 4 3 2 2 2 1 1 1 1 1 1 0 1 1 1 1 1 0 1 0 -0 -0 0 2 2 1 1 2 0 1 1 1 1
9 10 11 9 8 9 10 8 7 6 6 7 6 6 5 5 3 3 2 2 2 1 1 1 2 1 1 1 2 2 2 1 1 0 -0 -0 0 0 2 2 3 1 2 1 1 1 2 2 1
9 11 11 9 8 9 9 9 7 7 7 6 6 6 5 5 4 3 3 3 2 2 2 2 1 2 1 1 1 1 2 1 1 1 0 -0 1 2 2 2 2 1 2 1 1 2 2 2 2
10 11 10 10 8 8 9 10 8 6 6 6 5 5 5 5 5 4 4 3 2 3 2 2 1 1 1 1 1 1 1 1 2 2 1 1 1 1 1 1 1 1 2 2 2 2 2 3 2
12 8 8 9 10 13 9 15 10 8 7 6 6 6 5 5 4 4 4 4 3 2 2 2 1 2 1 1 2 2 2 3 2 2 1 1 0 1 1 1 1 1 1 2 2 1 2 2 3
10 7 9 8 10 11 10 13 12 8 9 8 7 6 5 5 4 4 4 3 3 2 2 2 2 2 2 1 2 2 2 2 2 2 2 2 1 1 1 1 1 2 1 1 1 2 2 3 3
7 8 9 10 12 14 11 12 13 10 9 8 6 6 5 5 4 4 3 3 3 2 2 2 2 2 1 1 1 2 2 2 2 2 2 2 1 1 1 1 1 1 1 2 1 1 2 2 3
9 12 15 15 16 15 11 12 11 8 7 6 6 6 5 5 4 4 4 4 3 3 2 2 2 2 1 1 1 1 2 2 2 2 2 2 2 2 2 1 1 1 1 1 1 1 1 2 2
10 11 13 16 16 14 10 12 11 7 6 6 5 6 5 5 4 4 4 4 3 4 3 3 2 3 2 2 1 1 1 2 2 2 2 2 2 2 1 1 1 1 1 1 1 2 1 1 1
10 12 9 12 13 14 13 11 8 7 7 7 7 6 6 6 6 6 6 4 5 4 4 4 2 3 2 2 1 2 2 2 2 3 2 1 2 1 1 1 1 1 1 1 2 2 2 2 2
9 8 12 12 16 17 13 13 13 10 9 8 7 7 7 5 5 5 4 4 4 3 2 2 2 2 1 1 2 2 1 1 2 2 3 3 1 1 0 1 1 1 1 1 2 3 2 3 2
10 11 10 11 12 15 18 17 9 9 9 8 7 6 6 5 5 4 4 3 3 4 3 3 3 2 2 1 1 2 1 2 3 3 2 1 2 3 2 1 2 2 2 2 3 2 2 2 2
8 10 10 13 13 13 15 15 8 7 7 6 6 6 5 5 5 6 4 4 3 4 4 3 2 3 2 1 2 3 3 3 3 2 2 1 1 1 1 1 1 1 1 2 2 2 2 2 3